Temp
8 11 12 13 12 10 12 12 13 10 7 7 11 10 12 12 10 9 10 9 9 8 6 7 7 8 8 8 9 9 9 9 9 9 8 8 6 6 4 3 4 5 5 4
9 11 10 8 8 10 10 11 12 9 6 7 9 10 12 10 9 8 9 9 9 7 6 7 7 8 8 9 9 9 9 9 8 7 6 4 4 3 3 2 3 3 4 4
12 9 6 8 8 10 9 11 10 10 8 6 7 13 12 10 8 7 8 9 8 8 7 6 7 8 8 9 9 9 8 7 7 6 5 3 2 1 0 -0 -1 0 1 2
10 6 7 8 9 9 10 7 7 7 10 12 8 13 14 11 10 9 8 7 7 7 6 7 8 8 8 8 8 8 7 7 6 4 3 2 1 -0 -0 0 -0 1 1 1
9 6 7 8 8 7 8 6 6 6 7 7 8 9 16 9 12 12 10 8 8 7 6 7 7 8 8 8 8 7 6 6 5 3 2 1 0 -1 -2 -1 -1 -1 0 -0
5 4 7 7 5 5 5 6 6 6 7 9 7 9 16 15 13 11 11 9 8 6 6 7 8 8 8 7 6 5 5 4 3 2 2 1 -0 -1 -2 -1 -2 -1 0 1
6 6 5 5 6 5 6 7 10 10 9 12 5 7 14 12 10 11 11 9 8 6 6 7 7 7 6 6 5 5 4 3 2 2 1 -0 -1 -2 -3 -3 -3 -3 -2 -3
9 9 6 5 7 8 6 6 10 13 12 11 4 8 14 9 7 7 6 7 7 5 6 7 7 6 5 5 4 4 3 3 1 1 0 -0 -2 -3 -3 -3 -4 -5 -5 -4
8 8 3 3 4 5 5 6 5 3 -3 6 10 9 11 9 9 8 7 6 6 6 6 6 6 5 4 4 4 3 2 2 1 0 0 -0 -2 -3 -3 -3 -5 -5 -5 -5
9 6 4 3 3 3 4 4 6 5 10 10 10 7 13 12 12 9 7 7 7 6 6 6 5 5 4 4 3 2 1 1 0 -0 -1 -2 -2 -4 -4 -4 -4 -4 -4 -4
6 7 3 3 4 6 3 4 3 5 7 11 11 13 9 13 12 8 9 8 7 6 6 6 5 5 4 4 3 2 1 1 -0 -0 -1 -2 -3 -4 -5 -5 -4 -4 -4 -4
5 5 5 5 3 3 4 5 5 10 6 4 5 10 7 10 10 8 7 6 7 8 6 6 5 4 4 3 2 2 1 1 -0 -1 -1 -2 -3 -5 -5 -5 -5 -4 -4 -4
4 5 5 5 4 3 4 4 4 0 3 3 8 12 6 7 7 6 6 6 7 6 5 5 4 3 3 2 2 1 1 0 -1 -1 -1 -2 -3 -4 -4 -4 -4 -4 -4 -3
3 3 5 10 8 6 4 4 4 4 6 5 7 8 10 8 5 6 6 6 6 5 4 4 4 3 3 2 2 1 1 0 -1 -1 -2 -2 -3 -3 -4 -4 -5 -5 -5 -4
4 4 2 3 4 4 5 4 3 3 5 8 9 5 8 4 4 4 5 4 4 5 5 4 4 3 2 2 2 1 1 0 -1 -1 -2 -2 -3 -3 -4 -5 -5 -5 -5 -5
1 3 2 3 2 2 3 5 3 3 5 3 5 5 9 9 7 4 5 4 5 5 5 4 4 3 3 2 2 1 0 -0 -1 -1 -1 -2 -2 -3 -3 -4 -5 -5 -5 -5
0 2 2 5 2 2 4 4 4 3 3 4 5 7 5 4 3 4 7 6 7 7 6 5 4 3 3 2 2 1 0 -0 -1 -1 -1 -2 -2 -3 -3 -4 -5 -5 -6 -6
0 1 1 3 1 5 9 5 6 6 7 3 4 4 4 3 4 5 7 7 8 8 7 5 4 3 2 2 2 1 0 -0 -1 -1 -1 -1 -2 -3 -3 -3 -4 -5 -5 -6
0 1 -0 3 4 6 9 4 4 4 8 6 4 6 6 4 3 6 10 10 9 8 7 6 4 3 2 2 1 1 0 -0 -1 -1 -1 -1 -1 -3 -3 -3 -3 -3 -4 -5
-1 0 3 -2 3 5 8 4 2 4 8 6 6 6 6 4 9 8 9 9 8 8 7 6 5 3 3 2 1 1 0 -0 -0 -1 -1 -1 -1 -2 -3 -3 -3 -3 -3 -4
-1 -1 1 1 2 3 5 2 2 7 10 5 4 5 4 6 8 9 9 8 7 7 6 5 5 3 2 2 2 1 1 0 -0 -0 -1 -1 -1 -1 -2 -2 -2 -3 -3 -3
0 0 0 -1 1 3 2 1 6 8 6 6 5 5 5 8 9 8 8 7 6 6 5 5 5 4 2 2 2 2 1 0 0 -0 -1 -1 -2 -2 -2 -2 -2 -2 -2 -2
2 3 1 2 3 3 3 4 5 6 6 7 7 7 7 6 7 7 7 6 6 6 5 5 5 4 2 2 2 1 1 -0 0 0 -0 -1 -1 -2 -2 -1 -1 -1 -1 -1
-1 -1 1 1 5 3 2 5 5 6 7 7 6 6 5 6 7 7 6 7 6 6 6 5 4 4 3 3 2 2 1 0 -0 0 0 -1 -2 -2 -3 -3 -2 -3 -3 -3
0 -0 -1 -0 3 3 3 5 7 7 7 7 7 7 7 6 7 7 6 7 6 6 6 5 5 5 4 3 2 2 1 1 -0 -0 0 0 -0 -1 -2 -2 -2 -2 -2 -3
-2 -0 3 4 5 7 7 8 8 7 7 7 7 7 7 6 6 7 6 6 6 6 6 5 5 5 5 3 2 2 1 1 0 -1 -1 -1 -1 -2 -2 -3 -3 -3 -3 -3
Height
1486 1486 1479 1476 1480 1482 1480 1479 1478 1486 1495 1492 1479 1474 1468 1469 1470 1470 1470 1471 1473 1476 1477 1478 1478 1479 1479 1478 1477 1475 1472 1469 1465 1460 1455 1449 1444 1440 1435 1432 1431 1429 1427 1425
1485 1479 1481 1484 1485 1483 1482 1480 1479 1487 1494 1491 1479 1466 1458 1462 1461 1462 1462 1464 1468 1472 1474 1475 1476 1476 1475 1474 1472 1470 1468 1464 1458 1453 1447 1441 1434 1430 1427 1424 1421 1419 1418 1416
1473 1479 1484 1484 1485 1482 1483 1479 1483 1484 1487 1491 1483 1455 1453 1458 1459 1460 1459 1461 1465 1467 1471 1472 1473 1472 1471 1470 1467 1465 1462 1457 1453 1447 1439 1433 1428 1423 1420 1417 1413 1410 1407 1407
1476 1484 1483 1483 1482 1482 1481 1488 1489 1489 1481 1473 1486 1465 1445 1453 1454 1457 1457 1459 1462 1465 1467 1469 1469 1468 1467 1465 1462 1460 1456 1451 1446 1439 1431 1426 1420 1416 1413 1409 1405 1402 1399 1397
1472 1480 1482 1481 1482 1485 1484 1492 1491 1492 1488 1491 1484 1482 1435 1455 1447 1447 1452 1456 1459 1462 1464 1464 1465 1464 1463 1461 1457 1453 1450 1444 1438 1432 1426 1419 1414 1410 1405 1402 1397 1394 1391 1389
1481 1483 1482 1482 1489 1489 1492 1493 1494 1494 1490 1479 1483 1481 1433 1437 1439 1443 1448 1453 1456 1458 1459 1460 1460 1459 1457 1455 1452 1448 1443 1437 1430 1424 1419 1413 1407 1402 1398 1395 1391 1387 1385 1382
1481 1480 1484 1484 1486 1492 1491 1487 1475 1475 1478 1462 1492 1486 1438 1440 1443 1444 1446 1448 1451 1454 1456 1457 1457 1455 1453 1450 1447 1443 1437 1431 1425 1418 1412 1406 1401 1396 1391 1387 1383 1380 1376 1372
1464 1470 1479 1481 1479 1476 1485 1485 1467 1460 1460 1463 1495 1468 1432 1441 1443 1445 1446 1446 1448 1450 1451 1453 1453 1451 1448 1446 1442 1437 1431 1425 1419 1413 1407 1401 1395 1389 1384 1380 1376 1372 1367 1364
1463 1465 1481 1483 1483 1484 1486 1485 1487 1499 1530 1486 1458 1453 1438 1439 1439 1442 1443 1443 1445 1446 1447 1449 1448 1445 1443 1441 1437 1432 1426 1420 1414 1408 1401 1395 1389 1384 1378 1373 1368 1363 1360 1356
1455 1467 1481 1483 1485 1486 1482 1487 1479 1483 1466 1462 1453 1462 1432 1431 1431 1436 1438 1439 1441 1443 1443 1443 1443 1441 1439 1436 1433 1428 1422 1415 1409 1403 1396 1389 1383 1377 1372 1366 1361 1356 1351 1347
1458 1457 1483 1482 1475 1467 1483 1479 1484 1476 1472 1449 1448 1431 1427 1422 1426 1432 1433 1435 1437 1437 1438 1438 1438 1437 1435 1432 1429 1423 1418 1411 1406 1399 1392 1385 1378 1372 1366 1360 1355 1349 1343 1339
1457 1460 1465 1466 1472 1471 1471 1467 1466 1449 1467 1480 1473 1439 1424 1423 1426 1429 1431 1432 1432 1433 1433 1433 1433 1432 1431 1428 1425 1420 1414 1408 1403 1396 1389 1382 1375 1368 1360 1355 1349 1343 1337 1332
1456 1458 1462 1466 1471 1473 1468 1464 1465 1476 1470 1475 1448 1423 1424 1426 1427 1428 1428 1428 1427 1428 1428 1428 1427 1427 1426 1424 1420 1416 1411 1406 1400 1394 1387 1380 1372 1364 1357 1350 1343 1338 1331 1326
1453 1457 1450 1429 1434 1446 1457 1455 1459 1458 1456 1451 1439 1427 1419 1420 1424 1424 1423 1423 1422 1422 1421 1421 1422 1422 1421 1419 1416 1413 1408 1403 1397 1392 1386 1379 1370 1362 1354 1347 1340 1333 1327 1321
1451 1447 1458 1452 1450 1451 1446 1448 1454 1457 1442 1430 1422 1436 1412 1418 1420 1417 1417 1417 1417 1416 1416 1416 1416 1417 1417 1415 1412 1409 1405 1401 1396 1391 1385 1378 1369 1361 1353 1346 1339 1332 1326 1320
1451 1448 1453 1447 1453 1454 1451 1443 1448 1447 1441 1446 1434 1428 1413 1407 1412 1413 1412 1412 1412 1411 1410 1411 1411 1412 1412 1411 1409 1407 1403 1399 1394 1390 1384 1377 1369 1362 1354 1346 1338 1331 1326 1319
1450 1448 1450 1437 1454 1455 1439 1430 1433 1434 1431 1426 1428 1401 1406 1407 1410 1409 1408 1408 1406 1406 1406 1406 1407 1408 1408 1407 1406 1403 1400 1396 1393 1389 1384 1378 1370 1364 1357 1349 1340 1334 1326 1319
1444 1447 1448 1446 1457 1434 1401 1408 1407 1408 1406 1414 1408 1400 1402 1404 1404 1403 1402 1401 1401 1401 1401 1402 1403 1404 1405 1404 1403 1400 1398 1395 1392 1388 1384 1378 1372 1366 1361 1354 1345 1337 1329 1321
1442 1442 1453 1441 1436 1416 1395 1406 1407 1407 1389 1392 1396 1390 1399 1401 1401 1396 1395 1396 1397 1397 1397 1397 1399 1401 1401 1401 1399 1397 1396 1393 1391 1388 1384 1380 1374 1369 1364 1357 1351 1343 1335 1327
1441 1441 1435 1457 1432 1415 1391 1399 1402 1402 1391 1382 1384 1389 1394 1399 1392 1392 1392 1393 1394 1394 1394 1394 1395 1396 1397 1397 1395 1394 1393 1391 1390 1387 1384 1380 1376 1372 1367 1362 1357 1350 1343 1335
1440 1445 1436 1440 1429 1417 1394 1399 1402 1397 1384 1382 1384 1386 1391 1392 1390 1389 1390 1390 1391 1391 1391 1390 1391 1392 1393 1392 1392 1391 1389 1388 1388 1386 1383 1381 1378 1374 1370 1366 1361 1356 1350 1344
1417 1428 1432 1442 1435 1417 1391 1400 1396 1382 1381 1382 1383 1385 1386 1386 1387 1387 1387 1386 1386 1386 1386 1386 1386 1386 1388 1388 1387 1387 1387 1386 1385 1384 1383 1381 1379 1377 1373 1369 1364 1360 1355 1350
1403 1397 1406 1406 1394 1383 1382 1379 1379 1380 1381 1382 1383 1384 1385 1384 1382 1382 1380 1380 1379 1379 1380 1380 1380 1381 1381 1382 1383 1383 1383 1382 1382 1381 1380 1380 1378 1376 1374 1371 1367 1363 1359 1354
1398 1397 1397 1398 1374 1379 1379 1378 1378 1379 1378 1380 1381 1382 1381 1378 1377 1374 1374 1373 1372 1372 1372 1373 1373 1373 1374 1376 1377 1378 1378 1379 1379 1378 1377 1377 1377 1376 1374 1372 1368 1365 1361 1358
1381 1385 1389 1388 1373 1374 1373 1371 1372 1375 1375 1375 1375 1375 1374 1373 1370 1369 1368 1367 1365 1365 1364 1365 1365 1366 1367 1369 1371 1372 1373 1374 1375 1375 1374 1374 1373 1373 1372 1371 1369 1367 1364 1362
1369 1370 1372 1370 1362 1364 1365 1365 1368 1370 1371 1371 1370 1369 1368 1367 1365 1364 1362 1361 1359 1358 1358 1357 1357 1358 1359 1362 1364 1366 1367 1368 1369 1372 1372 1371 1371 1370 1370 1369 1368 1366 1365 1363
Wind_Speed
3 5 9 12 9 1 2 2 2 2 2 4 8 15 16 16 20 21 23 15 15 16 14 13 10 8 8 11 15 20 25 30 36 39 42 43 42 40 36 31 29 28 29 29
4 9 2 7 5 4 3 2 3 2 2 4 7 21 15 5 7 14 19 18 19 19 16 14 10 8 10 14 19 24 29 33 36 38 39 38 37 36 35 33 31 29 27 27
6 2 8 3 4 5 2 3 2 1 5 1 9 8 4 3 3 5 11 15 17 19 16 12 11 10 13 18 23 28 31 32 35 37 38 35 34 32 29 27 28 28 28 26
2 6 5 4 4 4 3 3 5 2 4 3 4 6 4 3 5 7 11 15 18 17 14 12 9 11 16 21 25 29 30 32 35 35 34 33 32 30 29 31 30 31 30 27
4 9 7 4 0 3 2 3 4 2 1 3 3 3 4 2 7 12 12 16 17 16 12 10 10 14 19 24 27 28 30 32 33 33 31 31 31 29 29 28 29 27 27 28
3 1 1 2 4 3 12 4 3 2 0 3 4 3 5 4 2 4 9 17 18 16 14 11 13 17 21 24 25 28 30 32 33 33 30 28 29 28 28 27 29 30 29 30
3 4 2 3 5 4 2 3 1 2 2 3 3 3 10 4 3 2 4 9 17 16 14 12 13 17 20 21 24 27 29 31 31 31 29 28 29 27 28 30 32 32 34 34
6 5 9 6 2 3 7 2 3 4 3 1 2 6 3 1 1 5 7 5 12 16 16 12 13 16 17 20 23 26 28 30 29 29 28 28 28 28 30 31 31 34 35 37
6 3 3 2 1 1 5 6 2 6 1 1 2 6 12 7 12 13 11 9 13 16 15 13 14 16 17 20 23 25 27 28 28 28 29 29 28 28 30 30 30 32 33 34
3 3 1 4 2 5 2 5 3 1 4 5 3 5 4 6 9 8 9 16 15 17 20 16 15 16 18 20 22 23 25 27 29 29 30 30 30 28 28 29 30 30 32 32
3 2 3 4 9 10 5 4 0 0 1 3 2 4 5 7 7 7 7 10 12 16 21 20 18 18 17 18 19 21 24 26 28 29 30 31 30 29 28 28 28 28 29 31
4 2 4 3 1 1 2 4 7 3 6 1 1 7 3 6 5 5 8 10 10 11 17 20 21 17 15 16 16 19 22 25 26 27 29 30 30 29 29 27 27 27 29 31
6 4 3 2 2 0 6 7 4 4 1 8 5 4 1 3 6 10 11 12 14 15 15 18 17 14 13 12 14 17 20 22 23 25 27 29 30 30 28 27 27 26 27 29
6 2 4 7 2 4 6 11 12 4 4 6 8 6 9 8 8 8 15 20 22 18 16 14 13 12 12 10 12 15 17 20 21 23 25 27 30 31 29 27 26 25 25 27
5 5 4 4 3 2 3 6 14 12 9 9 2 11 15 3 7 10 16 14 12 12 12 12 12 11 10 8 10 12 15 17 19 21 23 25 28 30 29 27 25 23 24 24
3 2 1 3 1 3 6 9 14 17 10 12 16 21 14 22 14 14 12 9 12 12 10 12 12 11 8 7 8 10 11 14 17 19 22 23 26 28 29 27 24 23 22 21
7 7 4 5 4 6 12 13 16 9 9 12 13 22 4 5 5 11 13 13 19 15 11 12 12 11 9 7 7 8 9 12 14 16 19 22 25 28 29 27 24 22 21 21
7 6 2 2 4 8 2 2 7 18 14 18 12 13 6 6 10 19 23 21 13 9 10 12 12 11 10 6 6 6 8 9 11 13 16 20 24 26 28 28 27 26 24 22
5 5 3 4 7 9 12 6 8 9 9 21 23 22 13 9 8 9 2 4 3 6 7 10 11 12 10 7 6 4 6 6 8 9 13 17 21 23 24 27 27 28 28 26
2 1 2 3 4 6 2 1 2 3 6 2 17 11 10 6 3 2 1 4 6 8 8 9 11 13 12 9 6 5 5 4 4 6 10 13 16 18 20 23 25 26 27 29
6 2 8 5 4 8 9 5 8 3 2 1 9 8 14 6 6 3 5 8 10 11 12 12 13 14 13 11 8 8 6 4 3 4 6 9 11 14 16 18 19 22 25 27
9 9 5 4 3 10 11 7 6 2 2 3 8 10 14 8 8 12 14 17 15 16 16 17 17 17 16 14 12 10 9 6 4 2 2 5 7 10 12 14 15 17 19 22
6 7 7 11 8 2 24 1 16 6 4 3 4 5 10 12 19 21 23 21 19 17 19 19 21 20 20 19 16 14 11 10 7 4 2 1 3 5 7 9 12 14 16 19
6 4 3 3 8 14 16 22 23 16 17 15 14 17 17 22 21 24 25 24 22 19 19 19 23 24 24 22 20 16 15 13 11 8 6 4 2 2 4 6 8 10 13 16
4 14 7 5 9 9 19 20 25 21 17 16 15 13 15 18 20 21 22 19 19 20 21 20 25 26 26 24 23 21 18 16 15 13 10 9 7 5 4 3 5 7 10 12
8 7 6 4 13 4 2 9 4 8 13 13 15 17 18 19 21 21 25 22 20 20 20 22 24 26 26 27 27 25 23 20 18 17 14 12 10 9 6 4 3 3 5 7
Wind_Direction
154 209 213 209 215 301 144 192 224 142 113 282 254 274 271 255 241 239 248 226 199 188 184 186 199 226 257 278 291 303 309 310 310 312 311 306 304 303 301 295 289 285 283 280
154 231 169 115 138 160 170 193 223 161 136 303 311 293 289 257 241 234 221 200 187 181 189 199 217 250 279 296 305 306 309 313 315 313 310 307 305 303 298 296 295 291 283 280
208 102 140 138 166 177 193 230 192 290 304 154 313 270 214 178 204 183 174 178 182 187 191 203 226 262 291 302 307 313 313 315 314 312 311 310 307 304 300 297 293 292 291 287
219 133 165 170 210 208 226 117 109 39 317 286 11 293 247 192 220 204 172 179 184 188 197 212 243 280 299 308 312 311 314 317 317 317 316 312 308 303 300 298 296 298 298 296
147 165 167 187 254 188 107 105 93 95 70 306 133 233 257 203 219 205 193 193 194 196 204 230 267 291 303 307 309 314 316 320 322 321 317 312 307 303 301 298 296 295 295 295
78 24 188 91 77 63 137 107 77 81 175 240 117 211 268 205 182 137 199 206 204 205 219 245 275 294 303 307 313 318 322 326 326 322 319 316 311 306 301 299 296 297 293 292
145 158 139 152 117 113 192 155 237 238 200 244 127 210 263 249 203 171 155 201 208 208 224 251 280 297 306 312 315 321 326 329 327 325 323 320 316 309 303 302 301 299 297 295
170 225 180 159 236 196 184 230 218 235 218 9 138 233 240 288 327 239 252 235 206 209 225 257 286 303 310 314 319 323 328 330 331 330 327 322 317 311 308 306 302 299 297 297
183 187 92 44 117 243 162 213 83 104 69 265 236 268 266 249 249 235 241 217 213 213 225 260 299 312 314 315 319 326 330 331 334 334 331 328 323 317 311 308 304 302 300 295
178 137 207 143 147 64 201 143 130 258 198 232 234 272 243 206 196 197 204 219 227 224 232 254 301 310 307 313 320 328 331 334 336 337 335 331 329 323 316 312 308 305 303 300
162 244 129 162 205 184 145 204 135 46 270 225 270 245 203 205 182 195 212 218 231 239 238 251 292 302 301 309 319 330 334 337 340 339 338 336 333 327 320 317 315 312 309 306
176 119 168 194 71 318 235 220 190 211 190 224 318 268 175 227 206 213 229 233 242 268 249 257 282 284 292 306 322 332 337 341 343 342 342 342 340 334 328 323 322 319 317 313
173 208 134 203 199 133 217 196 175 106 109 195 181 242 126 218 229 233 243 250 269 283 259 269 272 272 289 305 324 336 341 346 346 346 347 347 347 343 337 334 329 326 324 317
156 184 238 251 39 121 193 195 189 182 179 163 227 287 256 228 234 225 249 277 288 277 265 262 255 265 281 305 327 340 346 351 352 351 349 350 355 351 345 342 337 334 331 325
189 210 190 250 246 241 242 189 189 207 219 209 228 206 252 202 227 255 283 281 275 271 261 249 247 257 276 307 327 341 348 358 358 357 355 357 1 357 353 351 346 345 341 334
298 188 140 276 133 240 261 231 198 222 243 255 268 279 259 269 268 273 287 276 272 288 276 247 242 250 270 295 316 337 349 1 6 4 4 5 9 5 4 1 359 357 350 347
176 162 163 229 55 336 277 226 206 207 207 210 222 241 128 239 215 258 274 279 290 292 267 245 238 245 258 279 308 330 346 2 10 12 15 16 19 18 13 11 12 7 9 5
163 142 125 127 140 232 302 148 213 221 235 215 255 258 226 227 261 280 278 277 283 288 251 236 231 239 247 268 291 321 339 357 7 13 20 25 24 26 22 21 25 27 25 22
175 157 145 179 217 308 293 201 174 179 261 212 222 245 255 259 286 278 247 222 263 272 251 234 230 238 246 258 276 302 322 347 1 17 25 30 28 25 27 30 32 38 38 39
146 330 252 163 205 233 310 130 149 142 275 292 208 225 209 184 230 239 215 250 276 259 245 236 235 236 242 250 264 279 297 320 343 15 24 28 30 28 31 34 36 43 48 50
140 174 204 189 225 284 243 149 148 173 313 67 180 174 163 188 221 261 270 288 289 268 248 238 237 239 239 240 249 258 263 267 298 353 18 28 34 32 29 33 37 43 50 55
164 159 183 159 193 261 147 103 198 196 118 142 174 186 196 217 267 276 287 289 289 276 254 244 241 239 236 237 241 245 244 235 245 291 13 26 32 32 30 29 38 43 49 51
200 194 181 196 206 40 188 228 207 167 144 170 224 227 240 264 290 293 290 294 290 278 259 248 247 240 234 235 237 238 236 228 232 235 230 336 13 26 31 31 37 42 48 51
227 168 201 150 229 232 232 236 242 246 260 272 273 280 281 282 292 290 293 293 290 284 270 255 246 241 237 236 235 234 234 230 229 232 230 228 249 307 351 21 36 46 54 54
172 151 164 264 278 247 247 238 243 256 264 271 278 276 287 292 293 292 294 302 298 286 275 261 249 246 244 238 234 232 231 233 230 229 229 228 231 249 277 327 5 23 34 39
189 161 174 204 221 221 204 157 174 259 275 288 288 288 298 293 291 292 291 296 295 293 283 268 256 250 243 238 234 232 230 230 230 231 233 232 232 236 247 266 308 351 19 26